軌道要素
Epoch 2011 Dec. 25.0 TT = JDT 2455920.5
T 2011 Dec. 6.85372 TT MPC
q 3.5365532 (2000.0) P Q
z -0.0003984 Peri. 50.73612 -0.40069418 +0.05012068
+/-0.0000051 Node 252.99819 -0.78942107 +0.48791757
e 1.0014089 Incl. 106.93225 +0.46503606 +0.87144957
From 273 observations 2012 Jan. 29-Aug. 21, mean residual 0".5.
|